Satellite-Ground Cal/Val Region Overpasses Predictions

Prediction of Satellite NPP Overpassing Cal/Val Region: PacNW

Region Location: (Latitude: 10.00, Longitude: 139.50) to (Latitude: 22.70, Longitude: 165.60).

Table of predicted overpasses for the next 14.0 days since TLE Epoch: 11/17/2012
Interval Starting Time Starting Location Ending Time Ending Location
1 11/17/2012 15:28:13 ( 22.67, 152.36) 11/17/2012 15:31:48 ( 10.04, 149.36)
2 11/18/2012 02:37:18 ( 10.03, 159.89) 11/18/2012 02:40:53 ( 22.65, 156.88)
3 11/18/2012 15:09:12 ( 22.66, 157.12) 11/18/2012 15:12:47 ( 10.04, 154.11)
4 11/19/2012 02:18:16 ( 10.03, 164.64) 11/19/2012 02:21:51 ( 22.66, 161.64)
5 11/19/2012 14:50:10 ( 22.65, 161.87) 11/19/2012 14:53:45 ( 10.03, 158.87)
6 11/20/2012 03:40:45 ( 10.05, 144.02) 11/20/2012 03:44:20 ( 22.67, 141.02)
7 11/20/2012 14:32:21 ( 18.42, 165.59) 11/20/2012 14:34:44 ( 10.02, 163.62)
8 11/20/2012 16:12:38 ( 22.70, 141.26) 11/20/2012 16:14:42 ( 15.42, 139.50)
9 11/21/2012 03:21:44 ( 10.05, 148.78) 11/21/2012 03:25:19 ( 22.67, 145.77)
10 11/21/2012 15:53:36 ( 22.69, 146.02) 11/21/2012 15:57:12 ( 10.01, 143.00)
11 11/22/2012 03:02:41 ( 10.00, 153.54) 11/22/2012 03:06:17 ( 22.68, 150.53)
12 11/22/2012 15:34:35 ( 22.68, 150.77) 11/22/2012 15:38:11 ( 10.00, 147.76)
13 11/23/2012 02:43:40 ( 10.01, 158.30) 11/23/2012 02:47:16 ( 22.69, 155.28)
14 11/23/2012 15:15:33 ( 22.68, 155.53) 11/23/2012 15:19:08 ( 10.06, 152.53)
15 11/24/2012 02:24:38 ( 10.02, 163.05) 11/24/2012 02:28:14 ( 22.70, 160.04)
16 11/24/2012 14:56:32 ( 22.67, 160.29) 11/24/2012 15:00:07 ( 10.05, 157.28)
17 11/25/2012 02:08:18 ( 19.48, 165.59) 11/25/2012 02:09:12 ( 22.64, 164.81)
18 11/25/2012 03:47:07 ( 10.03, 142.43) 11/25/2012 03:50:37 ( 22.35, 139.50)
19 11/25/2012 14:37:30 ( 22.67, 165.04) 11/25/2012 14:41:05 ( 10.05, 162.04)
20 11/25/2012 16:19:00 ( 22.66, 139.66) 11/25/2012 16:19:11 ( 22.02, 139.50)
21 11/26/2012 03:28:05 ( 10.03, 147.19) 11/26/2012 03:31:40 ( 22.65, 144.19)
22 11/26/2012 15:59:59 ( 22.65, 144.42) 11/26/2012 16:03:34 ( 10.04, 141.42)
23
